Regional Weather Roundup
Issued by NWS Newport/Morehead, NC

Current Version | Previous Version | Graphics & Text | Print | Product List | Glossary On
Versions: 1 2 3 4 5 6 7 8 9 10 11 12 13 14 15 16 17 18 19 20 21 22 23 24 25 26 27 28 29 30 31 32 33 34 35 36 37 38 39 40 41 42 43 44 45 46 47 48 49 50
000 ASUS42 KMHX 270225 RWRMHX WEATHER ROUNDUP FOR EASTERN NORTH CAROLINA NATIONAL WEATHER SERVICE NEWPORT/MOREHEAD CITY NC 1000 PM EDT WED JUL 26 2017 NOTE: "FAIR" INDICATES FEW OR NO CLOUDS BELOW 12,000 FEET WITH NO SIGNIFICANT WEATHER AND/OR OBSTRUCTIONS TO VISIBILITY NCZ015>017-031-032-045>047-102-103-270300- NORTH COAST CITY SKY/WX TMP DP RH WIND PRES REMARKS EDENTON CLEAR 76 68 76 SE3 30.12S ELIZABETH CITY CLEAR 74 69 85 E8 30.12S KITTY HAWK CLEAR 74 65 74 CALM 30.12R MANTEO CLEAR 73 65 76 SE7 30.13R $$ NCZ045>047-081-094-103-104-270300- CENTRAL COAST CITY SKY/WX TMP DP RH WIND PRES REMARKS FRISCO CLEAR 74 67 78 E6 30.11S $$ NCZ095-097-098-100-101-270300- SOUTHERN COAST CITY SKY/WX TMP DP RH WIND PRES REMARKS BEAUFORT CLEAR 77 70 79 E3 30.11R CEDAR ISLAND NOT AVBL JACKSONVILLE CLEAR 79 70 74 SE10 30.10R PINEY ISLAND CLEAR N/A N/A N/A E9 30.11R WILMINGTON CLOUDY 77 70 79 E5 30.10R $$ NCZ011>013-027>030-043-044-078>080-089-090>093-098-270300- COASTAL PLAIN CITY SKY/WX TMP DP RH WIND PRES REMARKS AHOSKIE N/A 72 68 86 SE6 30.11S CLINTON CLEAR 77 68 74 CALM 30.11R ELIZABETHTOWN NOT AVBL GOLDSBORO PTCLDY 79 71 77 SE6 30.09R GREENVILLE CLEAR 77 68 73 S7 30.13R HAVELOCK CLEAR 74 67 78 E3 30.12R KENANSVILLE PTCLDY 75 68 78 CALM 30.12R KINSTON CLEAR 77 68 73 SE5 30.12R NEW BERN CLEAR 77 68 73 E5 30.12R RICHLANDS CLEAR 75 68 78 VRB3 30.12R ROCKY MOUNT CLEAR 76 71 85 CALM 30.10R WASHINGTON CLEAR 75 67 78 CALM 30.12R WHITEVILLE CLEAR 75 71 87 CALM 30.10R $$ AMZ130-135-150-152-154-156-158-170-250-252-270-ANZ085-086-088-633-658-670-270300- MARINE OBSERVATIONS STATION/POSITION TIME TEMP WIND PRES WAVE SWELL AIR SEA DIR/SP/G HT/PER HT/PER (UTC) (F) (DEG/KT/KT) (MB) (FT/S) (FT/S) CHESAPEAKE LIGHT NOT AVBL 64 E VA BEACH 0150 75 78 80/ 8/ 10 1020.5 3/ 6 3/ 6 DUCK 0200 75 74 90/ 9/ 11 1019.6 2 E DUCK 0200 75 N/A 3/ 7 OREGON INLET 0200 75 75 80/ 7/ 11 1019.8 13E OREGON INLT 0148 78 N/A 3/ 8 3/ 8 HATTERAS CG 0200 75 79 70/ 5/ 8 1019.7 DIAMOND BUOY 0150 80 83 60/ 10/ 12 1019.3 3/ 7 3/ 7 CAPE LOOKOUT 0200 79 80/ 11/ 13 1019.1 BEAUFORT LAB 0200 77 80 80/ 2/ 4 1019.0 30 SE NEW RVR IN 0208 80 84 90/ 14/ 19 1019.2 30 SE NEW RVR IN 0213 84 N/A 3/ 5 27 SE WRIGHTSVLE 0208 81 82 100/ 14/ 19 1018.6 5 SE WRIGHTSVLE 0208 81 81 90/ 12/ 17 1018.9 225 S CAPE HAT 0150 81 83 170/ 8/ 10 1017.9 3/10 2/10 41 SE CHARLESTON 0200 80 83 90/ 4/ 4 1017.6 $$

USA.gov is the U.S. government's official web portal to all federal, state and local government web resources and services.